LEMUR-2-BEAUDACIOUS (44085 NORAD) Tracking and Keplerian Element Data

This shows tracking and keplerian element data for the satellite.

Feedback or suggestion? Click here.




ElementValue
Catalog44085
NameLEMUR-2-BEAUDACIOUS
Epoch Orbit304
Epoch Day111.3982389
Epoch Year2019
RAAN171.7797
Inclination97.4623
Eccentricity0.0013104
Argument of Perigee205.3694
Mean Anonmoly154.69
Mean Motion15.21453602
Decay Rate1.715E-05
L11 44085U 19018H 19111.39823890 .00001715 00000-0 79319-4 0 9992
L22 44085 97.4623 171.7797 0013104 205.3694 154.6900 15.21453602 3042

Live tracking and technical data element details for LEMUR-2-BEAUDACIOUS (NORAD 44085). LEMUR-2-BEAUDACIOUS can be tracked NOW for your location showing map with azimuth and elevation plus other details from your city location.

Track the satellite on the map from your city or location and see movement details for azimuth, elevation, latitude, longitude, range, height, and movement on the map or in text.







IsCatalogInMostPopularTable: catalog: 44085, numindb: 2
Update: records affected: 1



GetName: 44085 LEMUR-2-BEAUDACIOUS

Hit Count: updated at: Tue, 23 Apr 2019 02:11:17 GMT